(°F)
73°
72°
72°
72°
71°
71°
71°
(°F)
75°
75°
75°
75°
75°
75°
75°
NW
NW
NW
NW
NW
NNW
NNW
(mph)
5-10
4-8
4-7
3-7
3-6
3-6
3-6
(in)
0
0
0
0
0
0
0
(%)
0
0
0
0
0
0
0

Sun elevation

/ -19.7°
sun-icon
UV 7
06:37
18:43
(354°)
06:20
18:54

METAR for San Diego (KSAN)

Time Conditions Temperature/
Dewpoint
Wind Visibility Weather Clouds Pressure Change Raw
VFR 73.94°F / 62.96°F 310º 4kt >10km - Few Clouds 3000ft 1013 - KSAN 260251Z 31004KT 10SM FEW030 23/17 A2994 RMK AO2 SLP138 T02330172 53009
VFR 73.04°F / 66.92°F 300º 5kt >10km - Few Clouds 3000ft
Few Clouds 25000ft
1013 - KSAN 260151Z 30005KT 10SM FEW030 FEW250 23/19 A2993 RMK AO2 SLP134 T02280194
VFR 75.02°F / 66.02°F 300º 7kt >10km - Few Clouds 3000ft
Few Clouds 25000ft
1013 - KSAN 260051Z 30007KT 10SM FEW030 FEW250 24/19 A2992 RMK AO2 SLP131 T02390189
VFR 78.08°F / 64.94°F 320º 9kt >10km - Few Clouds 3000ft 1012 - KSAN 252351Z 32009KT 10SM FEW030 26/18 A2991 RMK AO2 SLP129 T02560183 10267 20256 56010
VFR 78.08°F / 64.04°F 300º 10kt Gust 16kt >10km - Few Clouds 3000ft 1013 - KSAN 252251Z 30010G16KT 10SM FEW030 26/18 A2992 RMK AO2 SLP130 TCU DSNT NE T02560178
VFR 78.08°F / 66.02°F 300º 12kt Gust 17kt >10km - Few Clouds 3000ft 1013 - KSAN 252151Z 30012G17KT 10SM FEW030 26/19 A2993 RMK AO2 SLP135 TCU DSNT NE T02560189
VFR 78.98°F / 62.96°F 300º 14kt Gust 19kt >10km - Few Clouds 3000ft 1014 - KSAN 252051Z 30014G19KT 10SM FEW030 26/17 A2995 RMK AO2 SLP140 TCU DSNT NE T02610172 58021
VFR 78.08°F / 64.94°F 300º 12kt >10km - Few Clouds 3000ft 1015 - KSAN 251951Z 30012KT 10SM FEW030 26/18 A2998 RMK AO2 SLP150 T02560183
VFR 78.98°F / 64.94°F 300º 10kt >10km - Few Clouds 3000ft 1015 - KSAN 251851Z 30010KT 10SM FEW030 26/18 A3000 RMK AO2 SLP158 T02610183
VFR 80.06°F / 60.98°F 300º 9kt >10km - Few Clouds 25000ft 1016 - KSAN 251751Z 30009KT 10SM FEW250 27/16 A3001 RMK AO2 SLP161 T02670161 10267 20206 58003
VFR 78.08°F / 64.94°F 300º 6kt >10km - Few Clouds 25000ft 1016 - KSAN 251651Z 30006KT 10SM FEW250 26/18 A3002 RMK AO2 SLP164 T02560183
VFR 75.02°F / 64.94°F 350º 6kt >10km - Few Clouds 25000ft 1016 - KSAN 251551Z 35006KT 10SM FEW250 24/18 A3001 RMK AO2 SLP163 T02390183
VFR 71.96°F / 66.02°F 340º 4kt >10km - Few Clouds 700ft
Few Clouds 25000ft
1016 - KSAN 251451Z 34004KT 10SM FEW007 FEW250 22/19 A3002 RMK AO2 SLP164 T02220189 53009
VFR 69.08°F / 64.94°F variable 0kt >10km - Few Clouds 700ft
Scattered Clouds 25000ft
1015 - KSAN 251351Z 00000KT 9SM FEW007 SCT250 21/18 A3000 RMK AO2 SLP159 T02060183
VFR 69.08°F / 66.02°F variable 0kt >10km - Few Clouds 700ft 1015 - KSAN 251251Z 00000KT 10SM FEW007 21/19 A3000 RMK AO2 SLP157 T02060189
VFR 69.08°F / 66.02°F 310º 3kt >10km - Few Clouds 700ft - KSAN 251224Z 31003KT 10SM FEW007 21/19 A2999 RMK AO2 T02060189
VFR 69.98°F / 66.02°F variable 0kt >10km - Clear 1015 - KSAN 251151Z 00000KT 10SM CLR 21/19 A2999 RMK AO2 SLP155 T02110189 10228 20211 55004
VFR 69.98°F / 66.02°F variable 0kt >10km - Clear 1015 - KSAN 251051Z 00000KT 10SM CLR 21/19 A2999 RMK AO2 SLP155 T02110189
VFR 71.06°F / 66.02°F 340º 4kt >10km - Few Clouds 1200ft 1015 - KSAN 250951Z 34004KT 10SM FEW012 22/19 A3000 RMK AO2 SLP157 T02170189
VFR 71.06°F / 64.94°F 340º 6kt >10km - Clear 1015 - KSAN 250851Z 34006KT 10SM CLR 22/18 A3000 RMK AO2 SLP159 T02170183 58009
VFR 71.06°F / 64.94°F 330º 3kt >10km - Clear 1016 - KSAN 250751Z 33003KT 10SM CLR 22/18 A3001 RMK AO2 SLP162 T02170183 402720200
VFR 71.96°F / 62.96°F 340º 5kt >10km - Clear 1016 - KSAN 250651Z 34005KT 10SM CLR 22/17 A3002 RMK AO2 SLP166 T02220172
VFR 71.96°F / 64.04°F variable 0kt >10km - Clear 1016 - KSAN 250551Z 00000KT 10SM CLR 22/18 A3003 RMK AO2 SLP168 T02220178 10267 20222 51008
VFR 71.96°F / 66.02°F 310º 4kt >10km - Few Clouds 25000ft 1016 - KSAN 250451Z 31004KT 10SM FEW250 22/19 A3003 RMK AO2 SLP167 T02220189

VFR

73.94°F / 62.96°F

[More]
Wind 310º 4kt
Visibility >10km
Weather -
Clouds Few Clouds 3000ft
Pressure 1013
Change -
Raw KSAN 260251Z 31004KT 10SM FEW030 23/17 A2994 RMK AO2 SLP138 T02330172 53009

VFR

73.04°F / 66.92°F

[More]
Wind 300º 5kt
Visibility >10km
Weather -
Clouds Few Clouds 3000ft
Few Clouds 25000ft
Pressure 1013
Change -
Raw KSAN 260151Z 30005KT 10SM FEW030 FEW250 23/19 A2993 RMK AO2 SLP134 T02280194

VFR

75.02°F / 66.02°F

[More]
Wind 300º 7kt
Visibility >10km
Weather -
Clouds Few Clouds 3000ft
Few Clouds 25000ft
Pressure 1013
Change -
Raw KSAN 260051Z 30007KT 10SM FEW030 FEW250 24/19 A2992 RMK AO2 SLP131 T02390189

VFR

78.08°F / 64.94°F

[More]
Wind 320º 9kt
Visibility >10km
Weather -
Clouds Few Clouds 3000ft
Pressure 1012
Change -
Raw KSAN 252351Z 32009KT 10SM FEW030 26/18 A2991 RMK AO2 SLP129 T02560183 10267 20256 56010

VFR

78.08°F / 64.04°F

[More]
Wind 300º 10kt Gust 16kt
Visibility >10km
Weather -
Clouds Few Clouds 3000ft
Pressure 1013
Change -
Raw KSAN 252251Z 30010G16KT 10SM FEW030 26/18 A2992 RMK AO2 SLP130 TCU DSNT NE T02560178

VFR

78.08°F / 66.02°F

[More]
Wind 300º 12kt Gust 17kt
Visibility >10km
Weather -
Clouds Few Clouds 3000ft
Pressure 1013
Change -
Raw KSAN 252151Z 30012G17KT 10SM FEW030 26/19 A2993 RMK AO2 SLP135 TCU DSNT NE T02560189

VFR

78.98°F / 62.96°F

[More]
Wind 300º 14kt Gust 19kt
Visibility >10km
Weather -
Clouds Few Clouds 3000ft
Pressure 1014
Change -
Raw KSAN 252051Z 30014G19KT 10SM FEW030 26/17 A2995 RMK AO2 SLP140 TCU DSNT NE T02610172 58021

VFR

78.08°F / 64.94°F

[More]
Wind 300º 12kt
Visibility >10km
Weather -
Clouds Few Clouds 3000ft
Pressure 1015
Change -
Raw KSAN 251951Z 30012KT 10SM FEW030 26/18 A2998 RMK AO2 SLP150 T02560183

VFR

78.98°F / 64.94°F

[More]
Wind 300º 10kt
Visibility >10km
Weather -
Clouds Few Clouds 3000ft
Pressure 1015
Change -
Raw KSAN 251851Z 30010KT 10SM FEW030 26/18 A3000 RMK AO2 SLP158 T02610183

VFR

80.06°F / 60.98°F

[More]
Wind 300º 9kt
Visibility >10km
Weather -
Clouds Few Clouds 25000ft
Pressure 1016
Change -
Raw KSAN 251751Z 30009KT 10SM FEW250 27/16 A3001 RMK AO2 SLP161 T02670161 10267 20206 58003

VFR

78.08°F / 64.94°F

[More]
Wind 300º 6kt
Visibility >10km
Weather -
Clouds Few Clouds 25000ft
Pressure 1016
Change -
Raw KSAN 251651Z 30006KT 10SM FEW250 26/18 A3002 RMK AO2 SLP164 T02560183

VFR

75.02°F / 64.94°F

[More]
Wind 350º 6kt
Visibility >10km
Weather -
Clouds Few Clouds 25000ft
Pressure 1016
Change -
Raw KSAN 251551Z 35006KT 10SM FEW250 24/18 A3001 RMK AO2 SLP163 T02390183

VFR

71.96°F / 66.02°F

[More]
Wind 340º 4kt
Visibility >10km
Weather -
Clouds Few Clouds 700ft
Few Clouds 25000ft
Pressure 1016
Change -
Raw KSAN 251451Z 34004KT 10SM FEW007 FEW250 22/19 A3002 RMK AO2 SLP164 T02220189 53009

VFR

69.08°F / 64.94°F

[More]
Wind variable 0kt
Visibility >10km
Weather -
Clouds Few Clouds 700ft
Scattered Clouds 25000ft
Pressure 1015
Change -
Raw KSAN 251351Z 00000KT 9SM FEW007 SCT250 21/18 A3000 RMK AO2 SLP159 T02060183

VFR

69.08°F / 66.02°F

[More]
Wind variable 0kt
Visibility >10km
Weather -
Clouds Few Clouds 700ft
Pressure 1015
Change -
Raw KSAN 251251Z 00000KT 10SM FEW007 21/19 A3000 RMK AO2 SLP157 T02060189

VFR

69.08°F / 66.02°F

[More]
Wind 310º 3kt
Visibility >10km
Weather -
Clouds Few Clouds 700ft
Pressure
Change -
Raw KSAN 251224Z 31003KT 10SM FEW007 21/19 A2999 RMK AO2 T02060189

VFR

69.98°F / 66.02°F

[More]
Wind variable 0kt
Visibility >10km
Weather -
Clouds Clear
Pressure 1015
Change -
Raw KSAN 251151Z 00000KT 10SM CLR 21/19 A2999 RMK AO2 SLP155 T02110189 10228 20211 55004

VFR

69.98°F / 66.02°F

[More]
Wind variable 0kt
Visibility >10km
Weather -
Clouds Clear
Pressure 1015
Change -
Raw KSAN 251051Z 00000KT 10SM CLR 21/19 A2999 RMK AO2 SLP155 T02110189

VFR

71.06°F / 66.02°F

[More]
Wind 340º 4kt
Visibility >10km
Weather -
Clouds Few Clouds 1200ft
Pressure 1015
Change -
Raw KSAN 250951Z 34004KT 10SM FEW012 22/19 A3000 RMK AO2 SLP157 T02170189

VFR

71.06°F / 64.94°F

[More]
Wind 340º 6kt
Visibility >10km
Weather -
Clouds Clear
Pressure 1015
Change -
Raw KSAN 250851Z 34006KT 10SM CLR 22/18 A3000 RMK AO2 SLP159 T02170183 58009

VFR

71.06°F / 64.94°F

[More]
Wind 330º 3kt
Visibility >10km
Weather -
Clouds Clear
Pressure 1016
Change -
Raw KSAN 250751Z 33003KT 10SM CLR 22/18 A3001 RMK AO2 SLP162 T02170183 402720200

VFR

71.96°F / 62.96°F

[More]
Wind 340º 5kt
Visibility >10km
Weather -
Clouds Clear
Pressure 1016
Change -
Raw KSAN 250651Z 34005KT 10SM CLR 22/17 A3002 RMK AO2 SLP166 T02220172

VFR

71.96°F / 64.04°F

[More]
Wind variable 0kt
Visibility >10km
Weather -
Clouds Clear
Pressure 1016
Change -
Raw KSAN 250551Z 00000KT 10SM CLR 22/18 A3003 RMK AO2 SLP168 T02220178 10267 20222 51008

VFR

71.96°F / 66.02°F

[More]
Wind 310º 4kt
Visibility >10km
Weather -
Clouds Few Clouds 25000ft
Pressure 1016
Change -
Raw KSAN 250451Z 31004KT 10SM FEW250 22/19 A3003 RMK AO2 SLP167 T02220189

TAF for San Diego (KSAN)

From till


From till Wind 300º 12kt. Visibility 10km or more. Few Clouds 25000ft.
From till Wind variable 4kt. Visibility 10km or more. Few Clouds 25000ft.
From till Wind 300º 11kt. Visibility 10km or more. Few Clouds 25000ft.
From till Wind variable 4kt. Visibility 10km or more. Few Clouds 25000ft.

Raw: KSAN 252339Z 2600/2706 30012KT P6SM FEW250 FM260200 VRB04KT P6SM FEW250 FM261800 30011KT P6SM FEW250 FM270200 VRB04KT P6SM FEW250

Radar and precipitation nowcast for San Diego

Drizzle
Light
Moderate
Heavy
Very Heavy
Hail

The location marker is placed on San Diego. This animation shows the precipitation radar for the last hour, as well as a 1h forecast. Drizzle or light snow fall might be invisible for the radar. Precipitation intensity is colour coded, ranging from light blue to orange.

Current satellite images for San Diego, United States

The location marker is placed on San Diego. [More]

The real-time satellite image combines visible light during daytime with infrared radiation during nighttime. At night, the image is not dark as infrared radiation can detect temperature differences. Unfortunately, low clouds and fog are difficult to distinguish from ground temperatures and thus can be almost invisible during the night. Meteosat satellite images for Europe are updated in real-time every 5 minutes. GOES-16/GOES-17 (North & South America) and Himawari (Asia) images update every 10 minutes.

Back to top